EW4729 Weather Reports


Display with metric or nautical units.
time (UTC)temp
F
wind
direction
speed
MPH
gust
MPH
rain 1hr
in
rain 24hr
in
rain mn
in
humidity
%
barometer
mb
20260504191554 81 192 8.0 12.0 0.00 0.00 0.00 63 1013.4
20260504191053 81 183 5.0 12.0 0.00 0.00 0.00 63 1013.5
20260504190553 81 196 6.0 12.0 0.00 0.00 0.00 62 1013.5
20260504190117 81 202 4.0 13.0 0.00 0.00 0.00 63 1013.6
20260504185552 81 177 7.0 13.0 0.00 0.00 0.00 64 1013.8
20260504185050 81 171 6.0 12.0 0.00 0.00 0.00 64 1013.8
20260504184558 81 209 5.0 12.0 0.00 0.00 0.00 65 1013.8
20260504184056 80 141 3.0 13.0 0.00 0.00 0.00 65 1013.8
20260504183553 81 178 6.0 14.0 0.00 0.00 0.00 64 1014.0
20260504183053 81 189 7.0 14.0 0.00 0.00 0.00 63 1013.8
20260504182553 80 208 5.0 12.0 0.00 0.00 0.00 66 1014.1
20260504182053 80 218 5.0 13.0 0.00 0.00 0.00 66 1014.1
20260504181558 80 127 6.0 13.0 0.00 0.00 0.00 66 1014.0
20260504181053 79 171 6.0 13.0 0.00 0.00 0.00 68 1014.3
20260504180552 79 204 5.0 13.0 0.00 0.00 0.00 67 1014.5
20260504180144 79 201 6.0 16.0 0.00 0.00 0.00 67 1014.5
20260504175553 79 205 7.0 16.0 0.00 0.00 0.00 67 1014.6
20260504175059 79 197 8.0 15.0 0.00 0.00 0.00 67 1014.6
20260504174553 79 202 7.0 16.0 0.00 0.00 0.00 65 1014.5
20260504174054 79 175 9.0 16.0 0.00 0.00 0.00 67 1014.5
20260504173556 79 211 10.0 16.0 0.00 0.00 0.00 66 1014.6
20260504173100 79 176 6.0 16.0 0.00 0.00 0.00 66 1014.9
20260504172552 79 223 9.0 15.0 0.00 0.00 0.00 67 1014.9
20260504172051 78 215 7.0 12.0 0.00 0.00 0.00 68 1015.0
20260504171553 78 197 6.0 13.0 0.00 0.00 0.00 66 1014.9
20260504171054 79 197 8.0 14.0 0.00 0.00 0.00 65 1014.9
20260504170553 79 211 9.0 16.0 0.00 0.00 0.00 66 1015.0
20260504151053 74 185 10.0 19.0 0.00 0.00 0.00 71 1015.9
20260504150552 74 214 10.0 18.0 0.00 0.00 0.00 72 1015.7
20260504141053 70 199 6.0 13.0 0.00 0.00 0.00 78 1015.9
20260504140552 70 129 5.0 10.0 0.00 0.00 0.00 78 1015.9
20260504140113 69 192 4.0 9.0 0.00 0.00 0.00 79 1015.9
20260504130553 64 187 2.0 5.0 0.00 0.00 0.00 84 1015.9
20260504130110 63 180 3.0 6.0 0.00 0.00 0.00 85 1015.8
20260504120114 59 170 0.0 0.0 0.00 0.00 0.00 84 1015.3
20260504110557 60 0 0.0 0.0 0.00 0.00 0.00 81 1015.9
20260504100552 61 179 3.0 7.0 0.00 0.00 0.00 81 1015.5
20260504081555 61 175 2.0 5.0 0.00 0.00 0.00 79 1016.3
20260504081051 61 161 1.0 5.0 0.00 0.00 0.00 79 1016.4
20260504080551 61 0 1.0 5.0 0.00 0.00 0.00 79 1016.4
20260504050552 65 181 3.0 9.0 0.00 0.00 0.00 75 1018.4
20260504050120 65 171 2.0 10.0 0.00 0.00 0.00 75 1018.5
20260504045552 65 175 3.0 10.0 0.00 0.00 0.00 75 1018.5
20260504045052 65 175 4.0 9.0 0.00 0.00 0.00 75 1018.7
20260504044559 65 188 3.0 9.0 0.00 0.00 0.00 75 1018.8
20260504044052 65 183 4.0 9.0 0.00 0.00 0.00 75 1018.9
20260504043552 65 182 3.0 8.0 0.00 0.00 0.00 75 1018.9
20260504043059 65 181 4.0 7.0 0.00 0.00 0.00 75 1018.9
20260504042551 65 180 3.0 7.0 0.00 0.00 0.00 75 1018.9
20260504042052 65 180 3.0 6.0 0.00 0.00 0.00 75 1018.9
20260504041552 65 188 3.0 6.0 0.00 0.00 0.00 75 1018.9
20260504041052 65 184 3.0 6.0 0.00 0.00 0.00 74 1018.9
20260504040552 65 190 2.0 5.0 0.00 0.00 0.00 74 1018.8
20260504040105 65 178 2.0 6.0 0.00 0.00 0.00 74 1018.8
20260504035552 65 177 3.0 6.0 0.00 0.00 0.00 74 1018.8
20260504035052 65 186 3.0 6.0 0.00 0.00 0.00 73 1018.9
20260504034553 66 178 2.0 6.0 0.00 0.00 0.00 73 1018.9
20260504034052 66 171 2.0 6.0 0.00 0.00 0.00 73 1018.9
20260504033552 66 178 3.0 6.0 0.00 0.00 0.00 73 1018.8
20260504033057 66 177 3.0 7.0 0.00 0.00 0.00 72 1018.8
20260504032552 66 182 4.0 8.0 0.00 0.00 0.00 72 1018.9
20260504032053 66 192 4.0 8.0 0.00 0.00 0.00 72 1018.9
20260504031623 66 187 4.0 8.0 0.00 0.00 0.00 72 1018.8
20260504031052 67 178 4.0 7.0 0.00 0.00 0.00 72 1018.9
20260504030553 67 187 4.0 7.0 0.00 0.00 0.00 72 1018.9
20260504030054 67 173 4.0 7.0 0.00 0.00 0.00 71 1018.8
20260504025552 67 181 3.0 7.0 0.00 0.00 0.00 71 1018.9
20260504025056 67 178 3.0 6.0 0.00 0.00 0.00 71 1018.9
20260504024553 68 188 3.0 6.0 0.00 0.00 0.00 71 1018.8
20260504024052 68 173 3.0 6.0 0.00 0.00 0.00 70 1018.6
20260504023552 68 178 3.0 6.0 0.00 0.00 0.00 70 1018.5
20260504023059 68 186 2.0 7.0 0.00 0.00 0.00 70 1018.6
20260504022552 68 189 3.0 7.0 0.00 0.00 0.00 69 1018.4
20260504022052 69 182 3.0 6.0 0.00 0.00 0.00 69 1018.3
20260504021605 69 188 3.0 7.0 0.00 0.00 0.00 69 1018.3
20260504021052 69 178 3.0 7.0 0.00 0.00 0.00 68 1018.3
20260504020551 69 187 3.0 8.0 0.00 0.00 0.00 68 1018.3
20260504015551 70 190 3.0 6.0 0.00 0.00 0.00 67 1018.2
20260504015052 70 186 3.0 8.0 0.00 0.00 0.00 67 1018.2
20260504014553 71 186 3.0 9.0 0.00 0.00 0.00 66 1018.2
20260504014050 71 198 3.0 10.0 0.00 0.00 0.00 66 1018.1
20260504013552 71 179 5.0 10.0 0.00 0.00 0.00 65 1018.0
20260504013059 71 181 5.0 10.0 0.00 0.00 0.00 65 1018.0
20260504012554 72 200 5.0 10.0 0.00 0.00 0.00 64 1018.1
20260504012056 72 200 5.0 10.0 0.00 0.00 0.00 63 1018.0
20260504011556 72 183 4.0 11.0 0.00 0.00 0.00 63 1018.0
20260504011054 73 157 5.0 12.0 0.00 0.00 0.00 62 1018.0
20260504010554 73 188 5.0 12.0 0.00 0.00 0.00 62 1018.0
20260504010115 74 183 5.0 12.0 0.00 0.00 0.00 61 1018.0
20260504005554 74 182 5.0 13.0 0.00 0.00 0.00 60 1017.9
20260504005052 75 193 5.0 15.0 0.00 0.00 0.00 58 1018.1
20260504004556 76 192 5.0 15.0 0.00 0.00 0.00 54 1018.1
20260504004052 76 117 2.0 5.0 0.00 0.00 0.00 50 1018.0
20260504003554 77 124 0.0 2.0 0.00 0.00 0.00 50 1018.0
20260504003051 77 124 0.0 5.0 0.00 0.00 0.00 49 1018.1
20260504002551 77 0 0.0 5.0 0.00 0.00 0.00 48 1018.1
20260504002052 77 155 0.0 6.0 0.00 0.00 0.00 47 1018.1
20260504001611 78 158 2.0 6.0 0.00 0.00 0.00 46 1018.0
20260504001052 78 174 3.0 6.0 0.00 0.00 0.00 46 1018.0
20260504000551 78 140 2.0 7.0 0.00 0.00 0.00 44 1018.2
20260504000105 78 163 2.0 7.0 0.00 0.00 0.00 44 1018.3
20260503235550 78 127 1.0 8.0 0.00 0.00 0.00 44 1018.4
20260503235052 78 138 2.0 8.0 0.00 0.00 0.00 44 1018.3
20260503234555 78 145 3.0 10.0 0.00 0.00 0.00 43 1018.2
20260503234052 78 112 3.0 10.0 0.00 0.00 0.00 43 1018.2
20260503233555 78 169 3.0 8.0 0.00 0.00 0.00 43 1018.3
20260503233055 79 123 3.0 8.0 0.00 0.00 0.00 43 1018.2
20260503232554 79 149 3.0 8.0 0.00 0.00 0.00 44 1018.2
20260503232052 79 156 2.0 10.0 0.00 0.00 0.00 43 1018.2
20260503231556 79 130 2.0 10.0 0.00 0.00 0.00 43 1018.2
20260503231052 79 155 4.0 10.0 0.00 0.00 0.00 42 1018.4
20260503230555 79 135 3.0 9.0 0.00 0.00 0.00 42 1018.5
20260503230100 79 173 4.0 10.0 0.00 0.00 0.00 40 1018.6
20260503225552 80 134 3.0 10.0 0.00 0.00 0.00 42 1018.5
20260503225054 79 149 3.0 10.0 0.00 0.00 0.00 42 1018.4
20260503224557 80 100 3.0 10.0 0.00 0.00 0.00 42 1018.5
20260503224051 80 101 3.0 10.0 0.00 0.00 0.00 40 1018.7
20260503223551 80 156 3.0 9.0 0.00 0.00 0.00 41 1018.8
20260503223057 80 158 3.0 9.0 0.00 0.00 0.00 41 1018.8
20260503222550 80 101 4.0 9.0 0.00 0.00 0.00 40 1018.9
20260503222054 80 166 3.0 9.0 0.00 0.00 0.00 43 1018.8
20260503221555 80 84 2.0 9.0 0.00 0.00 0.00 43 1018.8
20260503221054 80 127 2.0 10.0 0.00 0.00 0.00 44 1018.8
20260503220555 80 63 4.0 11.0 0.00 0.00 0.00 41 1018.9
20260503215555 80 167 4.0 10.0 0.00 0.00 0.00 43 1019.2
20260503215054 80 90 3.0 10.0 0.00 0.00 0.00 42 1019.2
20260503214557 80 132 4.0 10.0 0.00 0.00 0.00 41 1019.2
20260503214059 80 85 2.0 11.0 0.00 0.00 0.00 40 1019.4
20260503213554 80 92 2.0 11.0 0.00 0.00 0.00 42 1019.6
20260503213123 79 205 4.0 9.0 0.00 0.00 0.00 41 1019.7
20260503212554 79 111 4.0 9.0 0.00 0.00 0.00 42 1019.7
20260503212054 79 169 4.0 12.0 0.00 0.00 0.00 42 1019.8
20260503211619 79 148 5.0 12.0 0.00 0.00 0.00 44 1019.9
20260503211052 79 155 6.0 17.0 0.00 0.00 0.00 42 1020.0
20260503210552 79 199 7.0 17.0 0.00 0.00 0.00 42 1020.1
20260503210052 79 200 6.0 14.0 0.00 0.00 0.00 45 1020.0
20260503205552 80 167 4.0 9.0 0.00 0.00 0.00 41 1020.1
20260503205056 80 138 3.0 9.0 0.00 0.00 0.00 46 1020.2
20260503204606 79 190 4.0 10.0 0.00 0.00 0.00 47 1020.2
20260503204054 79 208 4.0 10.0 0.00 0.00 0.00 42 1020.2
20260503203551 79 171 5.0 18.0 0.00 0.00 0.00 45 1020.4
20260503203111 79 196 8.0 18.0 0.00 0.00 0.00 44 1020.5
20260503202552 79 194 7.0 13.0 0.00 0.00 0.00 44 1020.4
20260503202056 79 153 3.0 12.0 0.00 0.00 0.00 44 1020.4
20260503201552 79 194 4.0 13.0 0.00 0.00 0.00 44 1020.6
20260503201055 79 112 5.0 14.0 0.00 0.00 0.00 44 1020.6
20260503200551 79 182 6.0 14.0 0.00 0.00 0.00 44 1020.8
20260503200054 79 156 7.0 14.0 0.00 0.00 0.00 45 1020.7
20260503195555 80 117 5.0 11.0 0.00 0.00 0.00 47 1020.9
20260503195054 80 108 5.0 11.0 0.00 0.00 0.00 43 1020.9
20260503194611 80 192 6.0 11.0 0.00 0.00 0.00 44 1020.9
20260503194054 80 172 4.0 12.0 0.00 0.00 0.00 44 1021.1
20260503193554 80 85 3.0 14.0 0.00 0.00 0.00 44 1021.2
20260503193107 80 151 6.0 16.0 0.00 0.00 0.00 45 1021.3
20260503192552 80 155 5.0 16.0 0.00 0.00 0.00 44 1021.3
20260503192055 80 162 6.0 12.0 0.00 0.00 0.00 43 1021.5